Location: New Mesquite
(33.1168°N, 96.4336°W)
Time: 19:40:55
(UTC+00:00)

Cosmos 1538 Rocket - Pass Details

Date: 03 July 2022
Orbit: 752 x 791 km, 74.0° (Epoch: 07 August)

Event Time Altitude Azimuth Distance (km) Brightness Sun altitude
Rises 09:59:46 0° 159° (SSE) 3,236 7.0 -14.9°
Reaches altitude 10° 10:02:44 10° 143° (SE) 2,305 6.4 -14.4°
Maximum altitude 10:06:26 20° 97° (E) 1,720 6.4 -13.8°
Drops below altitude 10° 10:10:08 10° 52° (NE) 2,297 8.0 -13.2°
Sets 10:13:04 0° 36° (NE) 3,221 8.9 -12.8°
